| time (UTC) | temp C | wind direction | speed KPH | gust KPH | rain 1hr cm | rain 24hr cm | rain mn cm | humidity % | barometer mb |
| 20260507203033 | 12 | 0 | 0.0 | 1.6 | 0.00 | 0.00 | 0.00 | 81 | 1014.7 |
| 20260507201531 | 12 | 0 | 0.0 | 3.2 | 0.00 | 0.00 | 0.00 | 79 | 1014.3 |
| 20260507200032 | 13 | 0 | 0.0 | 3.2 | 0.00 | 0.00 | 0.00 | 79 | 1014.4 |
| 20260507194528 | 13 | 350 | 0.0 | 3.2 | 0.00 | 0.00 | 0.00 | 78 | 1014.3 |
| 20260507193034 | 13 | 350 | 0.0 | 4.8 | 0.00 | 0.00 | 0.00 | 74 | 1014.1 |
| 20260507191530 | 14 | 0 | 1.6 | 6.4 | 0.00 | 0.00 | 0.00 | 70 | 1013.9 |
| 20260507190032 | 14 | 360 | 0.0 | 1.6 | 0.00 | 0.00 | 0.00 | 70 | 1013.8 |
| 20260507184531 | 15 | 0 | 0.0 | 3.2 | 0.00 | 0.00 | 0.00 | 69 | 1013.9 |
| 20260507183028 | 15 | 0 | 0.0 | 3.2 | 0.00 | 0.00 | 0.00 | 68 | 1013.7 |
| 20260507181530 | 15 | 0 | 0.0 | 8.0 | 0.00 | 0.00 | 0.00 | 65 | 1013.6 |
| 20260507180031 | 16 | 0 | 1.6 | 8.0 | 0.00 | 0.00 | 0.00 | 64 | 1013.5 |
| 20260507174540 | 16 | 20 | 3.2 | 11.3 | 0.00 | 0.00 | 0.00 | 64 | 1013.4 |
| 20260507173035 | 16 | 51 | 1.6 | 8.0 | 0.00 | 0.00 | 0.00 | 62 | 1013.2 |
| 20260507171533 | 17 | 28 | 1.6 | 9.7 | 0.00 | 0.00 | 0.00 | 60 | 1013.2 |
| 20260507170040 | 17 | 51 | 3.2 | 9.7 | 0.00 | 0.00 | 0.00 | 59 | 1013.1 |
| 20260507164527 | 17 | 0 | 1.6 | 6.4 | 0.00 | 0.00 | 0.00 | 61 | 1013.2 |
| 20260507163027 | 17 | 31 | 3.2 | 12.9 | 0.00 | 0.00 | 0.00 | 60 | 1013.2 |
| 20260507161529 | 16 | 22 | 1.6 | 8.0 | 0.00 | 0.00 | 0.00 | 66 | 1013.3 |
| 20260507160032 | 16 | 346 | 1.6 | 9.7 | 0.00 | 0.00 | 0.00 | 66 | 1013.2 |
| 20260507154528 | 16 | 60 | 1.6 | 12.9 | 0.00 | 0.00 | 0.00 | 66 | 1013.3 |
| 20260507153029 | 16 | 18 | 4.8 | 16.1 | 0.00 | 0.00 | 0.00 | 66 | 1013.3 |
| 20260507151527 | 16 | 352 | 6.4 | 20.9 | 0.00 | 0.00 | 0.00 | 63 | 1013.3 |
| 20260507150034 | 17 | 43 | 3.2 | 12.9 | 0.00 | 0.00 | 0.00 | 63 | 1013.1 |
| 20260507144530 | 17 | 34 | 4.8 | 16.1 | 0.00 | 0.00 | 0.00 | 64 | 1013.2 |
| 20260507143034 | 17 | 53 | 3.2 | 8.0 | 0.00 | 0.00 | 0.00 | 63 | 1013.2 |
| 20260507141531 | 16 | 57 | 3.2 | 12.9 | 0.00 | 0.00 | 0.00 | 63 | 1013.1 |
| 20260507140032 | 16 | 101 | 3.2 | 12.9 | 0.00 | 0.00 | 0.00 | 67 | 1013.2 |
| 20260507134531 | 16 | 112 | 4.8 | 12.9 | 0.00 | 0.00 | 0.00 | 65 | 1013.3 |
| 20260507133030 | 16 | 59 | 3.2 | 11.3 | 0.00 | 0.00 | 0.00 | 67 | 1013.5 |
| 20260507131536 | 16 | 50 | 4.8 | 12.9 | 0.00 | 0.00 | 0.00 | 66 | 1013.5 |
| 20260507130027 | 16 | 69 | 4.8 | 11.3 | 0.00 | 0.00 | 0.00 | 68 | 1013.5 |
| 20260507124531 | 15 | 171 | 4.8 | 16.1 | 0.00 | 0.03 | 0.00 | 66 | 1013.6 |
| 20260507123028 | 15 | 72 | 6.4 | 14.5 | 0.00 | 0.03 | 0.00 | 68 | 1013.6 |
| 20260507121531 | 15 | 9 | 1.6 | 9.7 | 0.00 | 0.03 | 0.00 | 70 | 1013.7 |
| 20260507120037 | 14 | 11 | 3.2 | 12.9 | 0.00 | 0.03 | 0.00 | 74 | 1013.7 |
| 20260507114527 | 15 | 334 | 4.8 | 16.1 | 0.00 | 0.28 | 0.00 | 70 | 1013.6 |
| 20260507113028 | 16 | 0 | 3.2 | 12.9 | 0.00 | 0.28 | 0.00 | 68 | 1013.6 |
| 20260507111528 | 15 | 5 | 3.2 | 12.9 | 0.00 | 0.28 | 0.00 | 69 | 1013.7 |
| 20260507110031 | 15 | 329 | 1.6 | 4.8 | 0.00 | 0.28 | 0.00 | 70 | 1013.8 |
| 20260507104528 | 15 | 115 | 3.2 | 11.3 | 0.00 | 0.30 | 0.00 | 69 | 1013.9 |
| 20260507101531 | 13 | 309 | 1.6 | 12.9 | 0.00 | 0.30 | 0.00 | 73 | 1014.1 |
| 20260507100034 | 14 | 311 | 4.8 | 14.5 | 0.00 | 0.30 | 0.00 | 72 | 1014.1 |
| 20260507094532 | 14 | 51 | 4.8 | 14.5 | 0.00 | 0.33 | 0.00 | 76 | 1014.1 |
| 20260507093031 | 13 | 248 | 0.0 | 9.7 | 0.00 | 0.33 | 0.00 | 76 | 1014.0 |
| 20260507090036 | 13 | 307 | 4.8 | 12.9 | 0.00 | 0.33 | 0.00 | 77 | 1013.9 |
| 20260507084531 | 13 | 28 | 6.4 | 14.5 | 0.00 | 0.36 | 0.00 | 75 | 1013.9 |
| 20260507083030 | 13 | 15 | 1.6 | 8.0 | 0.00 | 0.36 | 0.00 | 79 | 1013.9 |
| 20260507081540 | 13 | 0 | 0.0 | 4.8 | 0.00 | 0.36 | 0.00 | 81 | 1013.8 |
| 20260507080031 | 12 | 0 | 0.0 | 4.8 | 0.00 | 0.36 | 0.00 | 82 | 1013.9 |
| 20260507074545 | 11 | 234 | 1.6 | 4.8 | 0.00 | 0.36 | 0.00 | 87 | 1013.9 |
| 20260507073031 | 10 | 0 | 0.0 | 0.0 | 0.00 | 0.36 | 0.00 | 89 | 1013.9 |
| 20260507071529 | 10 | 0 | 0.0 | 3.2 | 0.00 | 0.36 | 0.00 | 89 | 1013.9 |
| 20260507070028 | 10 | 0 | 0.0 | 0.0 | 0.00 | 0.36 | 0.00 | 90 | 1013.9 |
| 20260507064528 | 9 | 0 | 0.0 | 0.0 | 0.00 | 0.36 | 0.00 | 92 | 1013.8 |
| 20260507063030 | 8 | 0 | 1.6 | 4.8 | 0.00 | 0.36 | 0.00 | 93 | 1013.8 |
| 20260507061532 | 8 | 0 | 0.0 | 4.8 | 0.00 | 0.36 | 0.00 | 94 | 1013.6 |
| 20260507060028 | 8 | 0 | 0.0 | 3.2 | 0.00 | 0.36 | 0.00 | 94 | 1013.5 |
| 20260507054528 | 8 | 0 | 0.0 | 1.6 | 0.00 | 0.36 | 0.00 | 94 | 1013.4 |
| 20260507053027 | 8 | 0 | 0.0 | 1.6 | 0.00 | 0.36 | 0.00 | 95 | 1013.2 |
| 20260507051528 | 8 | 274 | 0.0 | 1.6 | 0.00 | 0.36 | 0.00 | 95 | 1013.2 |
| 20260507050030 | 8 | 0 | 0.0 | 1.6 | 0.00 | 0.36 | 0.00 | 95 | 1012.9 |
| 20260507044527 | 8 | 0 | 0.0 | 3.2 | 0.00 | 0.36 | 0.00 | 95 | 1012.8 |
| 20260507043027 | 8 | 0 | 0.0 | 1.6 | 0.00 | 0.36 | 0.00 | 95 | 1012.5 |
| 20260507041531 | 8 | 0 | 0.0 | 3.2 | 0.00 | 0.36 | 0.00 | 94 | 1012.5 |
| 20260507040033 | 8 | 0 | 0.0 | 0.0 | 0.00 | 0.36 | 0.00 | 95 | 1012.5 |
| 20260507034530 | 7 | 0 | 0.0 | 3.2 | 0.00 | 0.36 | 0.00 | 94 | 1012.3 |
| 20260507033031 | 8 | 0 | 0.0 | 3.2 | 0.00 | 0.36 | 0.00 | 94 | 1012.1 |
| 20260507031527 | 8 | 0 | 0.0 | 4.8 | 0.00 | 0.36 | 0.00 | 94 | 1012.1 |
| 20260507030029 | 8 | 0 | 0.0 | 4.8 | 0.00 | 0.36 | 0.00 | 95 | 1012.0 |
| 20260507024527 | 7 | 58 | 1.6 | 4.8 | 0.00 | 0.36 | 0.00 | 95 | 1012.0 |
| 20260507023031 | 7 | 0 | 0.0 | 0.0 | 0.00 | 0.36 | 0.00 | 95 | 1011.9 |
| 20260507021528 | 7 | 0 | 0.0 | 0.0 | 0.00 | 0.36 | 0.00 | 95 | 1011.8 |
| 20260507020028 | 7 | 0 | 0.0 | 0.0 | 0.00 | 0.36 | 0.00 | 95 | 1011.8 |
| 20260507014543 | 7 | 0 | 0.0 | 3.2 | 0.00 | 0.36 | 0.00 | 95 | 1011.9 |
| 20260507013028 | 6 | 0 | 0.0 | 1.6 | 0.00 | 0.36 | 0.00 | 95 | 1011.7 |
| 20260507011529 | 6 | 0 | 0.0 | 3.2 | 0.00 | 0.36 | 0.00 | 95 | 1011.6 |
| 20260507010032 | 6 | 250 | 0.0 | 3.2 | 0.00 | 0.36 | 0.00 | 95 | 1011.6 |
| 20260507004530 | 6 | 0 | 0.0 | 0.0 | 0.00 | 0.36 | 0.00 | 95 | 1011.6 |
| 20260507003027 | 6 | 0 | 0.0 | 3.2 | 0.00 | 0.36 | 0.00 | 95 | 1011.6 |
| 20260507001530 | 6 | 0 | 0.0 | 1.6 | 0.00 | 0.36 | 0.00 | 95 | 1011.5 |
| 20260507000036 | 6 | 0 | 0.0 | 3.2 | 0.00 | 0.36 | 0.00 | 94 | 1011.5 |
| 20260506234527 | 6 | 250 | 0.0 | 4.8 | 0.00 | 0.36 | 0.00 | 94 | 1011.6 |
| 20260506233033 | 6 | 0 | 0.0 | 3.2 | 0.00 | 0.36 | 0.00 | 94 | 1011.6 |
| 20260506231528 | 6 | 187 | 0.0 | 4.8 | 0.00 | 0.36 | 0.00 | 93 | 1011.4 |
| 20260506230031 | 6 | 0 | 0.0 | 1.6 | 0.00 | 0.36 | 0.00 | 93 | 1011.4 |
| 20260506224529 | 7 | 0 | 0.0 | 6.4 | 0.00 | 0.36 | 0.00 | 93 | 1011.3 |
| 20260506223029 | 7 | 190 | 1.6 | 4.8 | 0.00 | 0.36 | 0.00 | 93 | 1011.3 |
| 20260506221530 | 7 | 196 | 1.6 | 6.4 | 0.00 | 0.36 | 0.00 | 93 | 1011.2 |
| 20260506220029 | 7 | 206 | 1.6 | 6.4 | 0.00 | 0.36 | 0.00 | 93 | 1011.2 |
| 20260506214528 | 7 | 196 | 3.2 | 6.4 | 0.00 | 0.36 | 0.36 | 93 | 1011.2 |
| 20260506213027 | 7 | 196 | 3.2 | 6.4 | 0.00 | 0.36 | 0.36 | 92 | 1011.2 |
| 20260506211534 | 7 | 218 | 0.0 | 4.8 | 0.00 | 0.36 | 0.36 | 91 | 1011.2 |
| 20260506210032 | 8 | 238 | 0.0 | 4.8 | 0.00 | 0.36 | 0.36 | 91 | 1011.1 |
| 20260506204529 | 8 | 0 | 1.6 | 6.4 | 0.00 | 0.38 | 0.36 | 90 | 1011.0 |